Regional Weather Roundup
Issued by NWS

Home | Current Version | Previous Version | Text Only | Print | Product List | Glossary Off
Versions: 1 2 3 4 5 6 7 8 9 10 11 12 13 14 15 16 17 18 19 20 21 22 23 24 25 26 27 28 29 30 31 32 33 34 35 36 37 38 39 40 41 42 43 44 45 46 47 48 49 50

000
ASUS43 KLOT 252308
RWRIL

ILLINOIS REGIONAL WEATHER ROUNDUP
NATIONAL WEATHER SERVICE CHICAGO/ROMEOVILLE IL
600 PM CDT SAT MAR 25 2017

NOTE: "FAIR" INDICATES FEW OR NO CLOUDS BELOW 12,000 FEET WITH NO
SIGNIFICANT WEATHER AND/OR OBSTRUCTIONS TO VISIBILITY.

* THESE STATIONS ARE NOT UNDER NWS QUALITY CONTROL. THEY ALSO MAY NOT
  REPORT WEATHER SUCH AS PRECIPITATION OR FOG.

ILZ001-002-007-009-015-016-024-260000-
NORTHWEST ILLINOIS

CITY           SKY/WX    TMP DP  RH WIND       PRES   REMARKS
MOLINE         CLOUDY    54  50  86 E14       29.88S FOG
STERLING*      CLOUDY    46  45  96 E14       29.93S
SAVANNA*       CLOUDY    44  42  93 NE16      29.94S
$$

ILZ003-004-008-010-011-017-018-260000-
NORTH CENTRAL ILLINOIS

CITY           SKY/WX    TMP DP  RH WIND       PRES   REMARKS
ROCKFORD       CLOUDY    43  40  89 NE14      29.99F
FREEPORT*      CLOUDY    41  40  96 NE15G21   29.99S
ROCHELLE*      CLOUDY    44  43  97 E14G20    29.95F FOG
DE KALB*       CLOUDY    43  42  98 NE13      29.97S FOG
PERU*          CLOUDY    50  49  95 E13       29.92S FOG
$$

ILZ005-006-012>014-019>023-260000-
NORTHEAST ILLINOIS

CITY           SKY/WX    TMP DP  RH WIND       PRES   REMARKS
CHICAGO-OHARE  RAIN      43  41  93 N8        29.98F FOG
CHICAGO-MIDWAY LGT RAIN  45  44  97 N13G21    29.97F FOG
AURORA         CLOUDY    46  43  89 NE14      29.96F FOG
LANSING*       CLOUDY    48  48 100 N5        29.96F FOG
JOLIET*        CLOUDY    49  49  98 NE9       29.95F FOG
WAUKEGAN       CLOUDY    40  40 100 NE10      30.01F FOG
DUPAGE AIRPORT CLOUDY    43  43 100 NE12      29.97F FOG
KANKAKEE*      CLOUDY    57  56  97 NE7       29.93S FOG
WHEELING       LGT RAIN  41  41 100 NE7       30.01S FOG
MORRIS*        CLOUDY    50  48  93 NE7       29.93F FOG
ROMEOVILLE*    CLOUDY    46  46 100 NE9       29.96S FOG
NORTHERLY ISL    N/A     43  41  93 MISG        N/A
$$

LMZ740>746-260000-
SOUTHERN LAKE MICHIGAN

STATION/POSITION SKY/WX   TEMP    WIND        PRES    VSBY  WAVE
                          AIR SEA DIR/SP/G                  HT/PER
                          (F)     (DEG/KT/KT) (MB)    (MI)  (FT/S)
HARRISON CRIB                     350/ 17/ 18   N/A
BURNHAM HARBOR                    350/ 10/ 14   N/A
CALUMET HARBOR             42     330/  9/ 13 1014.7R
BURNS HARBOR               44     270/  7/ 12 1015.2S
MICHIGAN CITY              58      90/ 11/ 14   N/A
$$

ILZ025>027-034>036-040-047-049-050-058-095>099-260000-
WEST-CENTRAL ILLINOIS

CITY           SKY/WX    TMP DP  RH WIND       PRES   REMARKS
QUINCY         LGT RAIN  59  57  93 E10       29.80F FOG
GALESBURG*     CLOUDY    59  56  88 E6        29.86R
MACOMB*        LGT RAIN  58  57  94 E8        29.86S
JACKSONVILLE*  CLOUDY    60  57  91 SE10      29.82F
PITTSFIELD*    CLOUDY    61  59  94 NE6       29.80F
$$

ILZ028>032-037-038-041>044-048-051>054-059>061-260000-
CENTRAL ILLINOIS

CITY           SKY/WX    TMP DP  RH WIND       PRES   REMARKS
PONTIAC        CLOUDY    61  60  98 E8        29.92S
BLOOMINGTON    LGT RAIN  59  57  93 SE9       29.91S
DECATUR        LGT RAIN  61  57  87 SE10      29.88F
PEORIA         LGT RAIN  59  58  96 E6        29.87F FOG
LACON*         LGT RAIN  59  58  96 E7        29.89S
LINCOLN*       LGT RAIN  60  60  99 S3        29.87F
SPRINGFIELD    CLOUDY    62  59  90 SE13      29.85F
TAYLORVILLE    CLOUDY    61  59  94 SE8       29.86F
$$

ILZ033-039-045-046-055>057-062-063-260000-
EAST-CENTRAL ILLINOIS

CITY           SKY/WX    TMP DP  RH WIND       PRES   REMARKS
CHAMPAIGN      LGT RAIN  63  58  83 S3        29.91S
RANTOUL*       RAIN      64  60  88 S5        29.91F
MATTOON        CLOUDY    63  57  81 S9        29.89F
PARIS*         CLOUDY    62  59  89 CALM      29.92F
$$

ILZ079-100>102-260000-
SOUTHWEST ILLINOIS

CITY           SKY/WX    TMP DP  RH WIND       PRES   REMARKS
ALTON          PTSUNNY   63  57  82 SE17      29.81F
BELLEVILLE     PTSUNNY   62  62  99 SE10      29.81S
CAHOKIA*       LGT RAIN  64  57  78 SE13      29.79F
SPARTA*        CLOUDY    63  58  83 S10       29.83S
$$

ILZ064>066-069>071-074>076-080>082-084>086-088>090-092>094-260000-
SOUTH-CENTRAL ILLINOIS

CITY           SKY/WX    TMP DP  RH WIND       PRES   REMARKS
CARBONDALE     CLOUDY    63  60  90 SE9       29.84F
CAIRO*         CLOUDY    64  58  80 S13       29.85S
EFFINGHAM*     CLOUDY    63  58  83 E14       29.90F
MARION         CLOUDY    64  63  94 SE7       29.86F
MT. VERNON     CLOUDY    63  58  83 SE7       29.86F
CENTRALIA*     LGT RAIN  61  60  96 SE12      29.85F
SALEM*         RAIN      62  59  91 CALM      29.87F
METROPOLIS*    CLOUDY    66  57  72 S10G18    29.88S
$$

ILZ067-068-072-073-078-083-087-091-260000-
SOUTHEAST ILLINOIS

CITY           SKY/WX    TMP DP  RH WIND       PRES   REMARKS
LAWRENCEVILLE  PTSUNNY   65  59  81 S7        29.91F
FLORA*         CLOUDY    64  58  82 SE8       29.89F
FAIRFIELD*     CLOUDY    64  57  78 SE6       29.87F
HARRISBURG*    CLOUDY    65  57  77 S14G20    29.88F
ROBINSON*      CLOUDY    64  57  80 S8        29.92S
CARMI*         CLOUDY    64  57  79 S13       29.88F
$$

ABBREVIATIONS USED IN REMARKS
   TC - TEMPERATURE IN CELSIUS
  WCI - WIND CHILL INDEX
   HX - HEAT INDEX
  VSB - VISIBILITY
$$





USA.gov is the U.S. government's official web portal to all federal, state and local government web resources and services.